Volver al catálogo

GALASSIA-2

LostComunicacionesVLEO
NORAD 57486·PAYLOAD·🇸🇬 Singapore

Lanzado Jul 30, 2023 desde Satish Dhawan Space Centre

Loading…

Próximos Pases (próximas 24 horas)

TLE

ObsoletoSource: Space-Track

Época: Dec 16, 2023, 20:30 UTC

1 57486U 23109F   23350.85418427  .00009606  00000-0  48048-3 0  9995
2 57486   5.0011 301.3018 0001321 115.2367 244.7878 15.12808902 21185

Sigue GALASSIA-2 en tiempo real con AllMySat

Download on the App Store